TimeCST,TemperatureF,Dew PointF,Humidity,Sea Level PressureIn,VisibilityMPH,Wind Direction,Wind SpeedMPH,Gust SpeedMPH,PrecipitationIn,Events,Conditions,WindDirDegrees,DateUTC
12:53 AM,54.0,33.1,45,29.82,10.0,Variable,3.5,-,N/A,,Clear,0,2011-11-06 05:53:00
1:53 AM,53.1,32.0,45,29.81,10.0,SW,5.8,-,N/A,,Clear,220,2011-11-06 06:53:00
1:53 AM,53.1,32.0,45,29.81,10.0,WSW,10.4,-,N/A,,Clear,250,2011-11-06 07:53:00
2:53 AM,52.0,33.1,49,29.82,10.0,WSW,6.9,-,N/A,,Clear,240,2011-11-06 08:53:00
3:53 AM,51.1,33.1,50,29.83,10.0,West,8.1,-,N/A,,Clear,260,2011-11-06 09:53:00
5:53 AM,45.0,30.9,58,29.87,10.0,SSW,5.8,-,N/A,,Clear,210,2011-11-06 11:53:00
6:53 AM,45.0,30.9,58,29.91,10.0,WSW,5.8,-,N/A,,Clear,240,2011-11-06 12:53:00
7:53 AM,48.0,30.9,52,29.93,-9999.0,Calm,Calm,-,N/A,,Clear,0,2011-11-06 13:53:00
8:53 AM,57.0,32.0,39,29.94,-9999.0,Calm,Calm,-,N/A,,Clear,0,2011-11-06 14:53:00
9:53 AM,63.0,33.1,33,29.94,-9999.0,Variable,5.8,-,N/A,,Clear,0,2011-11-06 15:53:00
10:53 AM,66.0,34.0,30,29.93,-9999.0,SSW,8.1,-,N/A,,Clear,210,2011-11-06 16:53:00
11:53 AM,68.0,35.1,30,29.92,-9999.0,SSW,8.1,-,N/A,,Clear,210,2011-11-06 17:53:00
12:53 PM,70.0,35.1,28,29.88,-9999.0,SSW,10.4,-,N/A,,Clear,210,2011-11-06 18:53:00
1:53 PM,72.0,35.1,26,29.84,10.0,SSW,8.1,-,N/A,,Clear,210,2011-11-06 19:53:00
2:53 PM,73.9,34.0,23,29.82,10.0,SW,9.2,-,N/A,,Clear,230,2011-11-06 20:53:00
3:53 PM,73.9,34.0,23,29.81,10.0,SSW,6.9,-,N/A,,Clear,210,2011-11-06 21:53:00
4:53 PM,73.9,34.0,23,29.82,10.0,Variable,3.5,-,N/A,,Clear,0,2011-11-06 22:53:00
7:53 PM,63.0,35.1,35,29.86,10.0,ENE,6.9,-,N/A,,Clear,70,2011-11-07 01:53:00
8:53 PM,61.0,35.1,38,29.85,10.0,ENE,8.1,-,N/A,,Clear,70,2011-11-07 02:53:00
9:53 PM,60.1,39.0,46,29.84,10.0,East,8.1,-,N/A,,Clear,100,2011-11-07 03:53:00
10:53 PM,59.0,42.1,53,29.82,10.0,ESE,9.2,-,N/A,,Clear,110,2011-11-07 04:53:00